When you browse on this site, cookies collect data to enhance your experience and personalize the content and advertising you see.
Visit our Privacy Policy to learn more. By continuing to use the site, you agree to this use of cookies and data.
  • In United Kingdom
  • List of Countries
  • For 7 days
  • Water Temperature
  • Satellite Maps
  • Weather Map
  • Weather Widgets
  • user-avatar
    Login

    Hourly Weather Molfetta

    Today, 26 May, Sunday

    Time Temperature Precipitation Wind Pressure Humidity
    00:00 +20°C° 0 mm 3 mps 759 mmHg 64%
    01:00 +20°C° 0 mm 3 mps 759 mmHg 64%
    02:00 +20°C° 0 mm 2 mps 759 mmHg 65%
    03:00 +19°C° 0 mm 2 mps 759 mmHg 67%
    04:00 +19°C° 0 mm 2 mps 759 mmHg 68%
    05:00 +20°C° 0 mm 2 mps 759 mmHg 67%
    06:00 +20°C° 0 mm 3 mps 759 mmHg 67%
    07:00 +21°C° 0 mm 3 mps 758 mmHg 67%
    08:00 +21°C° 0 mm 4 mps 758 mmHg 63%
    09:00 +22°C° 0 mm 5 mps 759 mmHg 59%
    10:00 +23°C° 0 mm 5 mps 759 mmHg 55%
    11:00 +22°C° 0.4 mm 5 mps 759 mmHg 56%
    12:00 +22°C° 0.4 mm 5 mps 759 mmHg 58%
    13:00 +21°C° 0.4 mm 4 mps 759 mmHg 59%
    14:00 +22°C° 0 mm 5 mps 758 mmHg 55%
    15:00 +23°C° 0 mm 6 mps 758 mmHg 50%
    16:00 +24°C° 0 mm 7 mps 758 mmHg 46%
    17:00 +23°C° 0 mm 7 mps 758 mmHg 49%
    18:00 +22°C° 0 mm 6 mps 757 mmHg 52%
    19:00 +21°C° 0 mm 6 mps 757 mmHg 56%
    20:00 +21°C° 0 mm 6 mps 757 mmHg 59%
    21:00 +20°C° 0 mm 6 mps 757 mmHg 63%
    22:00 +20°C° 0 mm 5 mps 757 mmHg 66%
    23:00 +19°C° 0.1 mm 5 mps 757 mmHg 68%

    Tomorrow, 27 May, Monday

    Time Temperature Precipitation Wind Pressure Humidity
    00:00 +19°C° 0.1 mm 5 mps 756 mmHg 71%
    01:00 +19°C° 0.1 mm 4 mps 756 mmHg 73%
    02:00 +19°C° 0.5 mm 5 mps 756 mmHg 75%
    03:00 +19°C° 0.5 mm 5 mps 756 mmHg 78%
    04:00 +19°C° 0.5 mm 5 mps 755 mmHg 80%
    05:00 +19°C° 0.7 mm 6 mps 755 mmHg 79%
    06:00 +20°C° 0.7 mm 7 mps 755 mmHg 78%
    07:00 +20°C° 0.7 mm 8 mps 755 mmHg 76%
    08:00 +21°C° 0.6 mm 8 mps 755 mmHg 71%
    09:00 +22°C° 0.6 mm 8 mps 755 mmHg 66%
    10:00 +22°C° 0.6 mm 9 mps 755 mmHg 60%
    11:00 +22°C° 0 mm 8 mps 755 mmHg 64%
    12:00 +22°C° 0 mm 8 mps 755 mmHg 67%
    13:00 +21°C° 0 mm 8 mps 754 mmHg 70%
    14:00 +21°C° 0 mm 8 mps 754 mmHg 72%
    15:00 +21°C° 0 mm 7 mps 753 mmHg 74%
    16:00 +22°C° 0 mm 7 mps 753 mmHg 76%
    17:00 +21°C° 0.1 mm 6 mps 753 mmHg 79%
    18:00 +21°C° 0.1 mm 6 mps 753 mmHg 81%
    19:00 +21°C° 0.1 mm 5 mps 752 mmHg 83%
    20:00 +21°C° 0.7 mm 5 mps 753 mmHg 83%
    21:00 +20°C° 0.7 mm 5 mps 753 mmHg 83%
    22:00 +20°C° 0.7 mm 4 mps 753 mmHg 83%
    23:00 +19°C° 0.4 mm 4 mps 753 mmHg 83%

    Day after tomorrow, 28 May, Tuesday

    Time Temperature Precipitation Wind Pressure Humidity
    00:00 +19°C° 0.4 mm 4 mps 753 mmHg 83%
    01:00 +18°C° 0.4 mm 3 mps 753 mmHg 83%
    02:00 +18°C° 0 mm 3 mps 753 mmHg 82%
    03:00 +18°C° 0 mm 3 mps 752 mmHg 82%
    04:00 +18°C° 0 mm 2 mps 752 mmHg 81%
    05:00 +19°C° 0.1 mm 3 mps 753 mmHg 78%
    06:00 +19°C° 0.1 mm 3 mps 753 mmHg 75%
    07:00 +20°C° 0.1 mm 4 mps 753 mmHg 72%
    08:00 +22°C° 0.4 mm 3 mps 753 mmHg 67%
    09:00 +24°C° 0.4 mm 3 mps 753 mmHg 62%
    10:00 +26°C° 0.4 mm 2 mps 754 mmHg 58%
    11:00 +26°C° 1.4 mm 3 mps 754 mmHg 56%
    12:00 +27°C° 1.4 mm 3 mps 754 mmHg 55%
    13:00 +27°C° 1.4 mm 3 mps 754 mmHg 54%
    14:00 +27°C° 0.8 mm 4 mps 754 mmHg 54%
    15:00 +27°C° 0.8 mm 4 mps 754 mmHg 55%
    16:00 +27°C° 0.8 mm 5 mps 754 mmHg 55%
    17:00 +25°C° 0.1 mm 5 mps 754 mmHg 58%
    18:00 +23°C° 0.1 mm 5 mps 754 mmHg 61%
    19:00 +22°C° 0.1 mm 5 mps 755 mmHg 64%
    20:00 +21°C° 0 mm 5 mps 755 mmHg 66%
    21:00 +20°C° 0 mm 5 mps 755 mmHg 69%
    22:00 +20°C° 0 mm 5 mps 755 mmHg 72%
    23:00 +19°C° 0 mm 5 mps 755 mmHg 73%

    29 May, Wednesday

    Time Temperature Precipitation Wind Pressure Humidity
    00:00 +19°C° 0 mm 5 mps 755 mmHg 74%
    01:00 +18°C° 0 mm 4 mps 755 mmHg 75%
    02:00 +17°C° 0 mm 5 mps 755 mmHg 76%
    03:00 +17°C° 0 mm 5 mps 755 mmHg 77%
    04:00 +16°C° 0 mm 5 mps 755 mmHg 78%
    05:00 +17°C° 0 mm 5 mps 756 mmHg 72%
    06:00 +19°C° 0 mm 6 mps 756 mmHg 66%
    07:00 +20°C° 0 mm 6 mps 756 mmHg 60%
    08:00 +22°C° 0 mm 6 mps 757 mmHg 54%
    09:00 +24°C° 0 mm 6 mps 757 mmHg 49%
    10:00 +27°C° 0 mm 6 mps 757 mmHg 44%
    11:00 +27°C° 0 mm 6 mps 758 mmHg 43%
    12:00 +28°C° 0 mm 5 mps 758 mmHg 43%
    13:00 +28°C° 0 mm 5 mps 758 mmHg 43%
    14:00 +28°C° 0.1 mm 5 mps 758 mmHg 43%
    15:00 +27°C° 0.1 mm 5 mps 758 mmHg 44%
    16:00 +27°C° 0.1 mm 5 mps 757 mmHg 44%
    17:00 +26°C° 0 mm 5 mps 758 mmHg 47%
    18:00 +23°C° 0 mm 5 mps 758 mmHg 50%
    19:00 +22°C° 0 mm 5 mps 758 mmHg 53%
    20:00 +21°C° 0 mm 4 mps 758 mmHg 55%
    21:00 +20°C° 0 mm 4 mps 759 mmHg 56%
    22:00 +20°C° 0 mm 4 mps 759 mmHg 58%
    23:00 +19°C° 0 mm 4 mps 759 mmHg 59%

    30 May, Thursday

    Time Temperature Precipitation Wind Pressure Humidity
    00:00 +17°C° 0 mm 5 mps 760 mmHg 60%
    01:00 +17°C° 0 mm 5 mps 760 mmHg 61%
    02:00 +16°C° 0 mm 5 mps 760 mmHg 61%
    03:00 +16°C° 0 mm 5 mps 760 mmHg 62%
    04:00 +15°C° 0 mm 5 mps 760 mmHg 62%
    05:00 +16°C° 0 mm 5 mps 760 mmHg 60%
    06:00 +17°C° 0 mm 5 mps 761 mmHg 58%
    07:00 +19°C° 0 mm 5 mps 761 mmHg 56%
    08:00 +20°C° 0 mm 5 mps 761 mmHg 53%
    09:00 +22°C° 0 mm 5 mps 761 mmHg 49%
    10:00 +23°C° 0 mm 5 mps 761 mmHg 46%
    11:00 +23°C° 0 mm 5 mps 761 mmHg 46%
    12:00 +25°C° 0 mm 5 mps 761 mmHg 46%
    13:00 +25°C° 0 mm 5 mps 762 mmHg 47%
    14:00 +25°C° 0.1 mm 5 mps 762 mmHg 50%
    15:00 +23°C° 0.1 mm 5 mps 762 mmHg 54%
    16:00 +23°C° 0.1 mm 6 mps 762 mmHg 58%
    17:00 +22°C° 0.2 mm 5 mps 762 mmHg 62%
    18:00 +21°C° 0.3 mm 5 mps 762 mmHg 66%
    19:00 +20°C° 0.3 mm 5 mps 762 mmHg 71%
    20:00 +19°C° 0.1 mm 5 mps 763 mmHg 72%
    21:00 +19°C° 0.1 mm 6 mps 763 mmHg 74%
    22:00 +17°C° 0.1 mm 6 mps 763 mmHg 76%
    23:00 +17°C° 0.1 mm 6 mps 763 mmHg 78%

    31 May, Friday

    Time Temperature Precipitation Wind Pressure Humidity
    00:00 +17°C° 0.1 mm 6 mps 763 mmHg 79%
    01:00 +16°C° 0.1 mm 7 mps 763 mmHg 81%
    02:00 +16°C° 0.3 mm 7 mps 763 mmHg 80%
    03:00 +16°C° 0.3 mm 6 mps 763 mmHg 80%
    04:00 +16°C° 0.3 mm 6 mps 763 mmHg 80%
    05:00 +17°C° 0.4 mm 6 mps 763 mmHg 76%
    06:00 +18°C° 0.4 mm 7 mps 763 mmHg 73%
    07:00 +20°C° 0.4 mm 7 mps 763 mmHg 70%
    08:00 +21°C° 0.1 mm 7 mps 763 mmHg 64%
    09:00 +22°C° 0.1 mm 7 mps 763 mmHg 58%
    10:00 +23°C° 0.1 mm 7 mps 763 mmHg 51%
    11:00 +24°C° 0 mm 7 mps 763 mmHg 49%
    12:00 +24°C° 0 mm 8 mps 763 mmHg 47%
    13:00 +24°C° 0 mm 8 mps 763 mmHg 45%
    14:00 +24°C° 0 mm 8 mps 763 mmHg 45%
    15:00 +24°C° 0 mm 8 mps 763 mmHg 45%
    16:00 +24°C° 0 mm 8 mps 763 mmHg 44%
    17:00 +23°C° 0 mm 8 mps 763 mmHg 49%
    18:00 +22°C° 0 mm 8 mps 763 mmHg 53%
    19:00 +21°C° 0 mm 7 mps 763 mmHg 57%
    20:00 +20°C° 0 mm 7 mps 763 mmHg 62%
    21:00 +20°C° 0 mm 7 mps 764 mmHg 67%
    22:00 +18°C° 0 mm 7 mps 764 mmHg 72%
    23:00 +19°C° 0 mm 6 mps 764 mmHg 75%
    Show more